Retour au catalogue

COSMOS 651 DEB

LostLEO
NORAD 38843·DEBRIS·🇷🇺 Russia

Lancé May 15, 1974 depuis Baikonur Cosmodrome

Loading…

Prochains Passages (prochaines 24 heures)

TLE

PériméSource: Space-Track

Époque: Aug 11, 2026, 05:54 UTC

1 38843U 74029D   26223.24616971 -.00000030  00000-0  44670-4 0  9998
2 38843  64.9710  44.6605 0033730 357.2472   2.8403 13.96399389340842

Suivez COSMOS 651 DEB en temps réel avec AllMySat

Download on the App Store